This demonstration page uses our WeatherBlox Daily Observations layout. Learn more.

Left ArrowRight Arrow

Hourly Observations for December 26, 2021

Temp ( °F °C ) Dew Point ( °F °C ) Humidity (%) Winds ( mph kmh ) Pressure ( in mb ) Visibility ( mi km ) Precip ( " mm )
12:56 am 00:56 Clear 27 -2.8 26 -3.2 97 97 Calm 30.00 1016 10 16 0.00 0.00
1:56 am 01:56 Clear 26 -3.5 24 -4.2 95 95 Calm 30.01 1016 10 16 0.00 0.00
2:56 am 02:56 Clear 26 -3.2 26 -3.3 99 99 Calm 30.00 1016 9 14 0.00 0.00
3:56 am 03:56 Clear 26 -3.1 25 -3.9 94 94 Calm 30.00 1016 10 16 0.00 0.00
4:56 am 04:56 Clear 25 -3.7 24 -4.5 94 94 Calm 29.99 1016 10 16 0.00 0.00
5:56 am 05:56 Clear 29 -1.8 27 -2.6 94 94 NE 6 9 29.97 1015 10 16 0.00 0.00
6:56 am 06:56 Clear 29 -1.7 27 -2.8 92 92 ENE 7 11 29.97 1015 10 16 0.00 0.00
7:56 am 07:56 Mostly Sunny 30 -1 29 -1.7 95 95 E 6 9 29.95 1014 10 16 0.00 0.00
8:56 am 08:56 Mostly Sunny 33 0.6 28 -2.1 82 82 E 9 15 29.92 1013 10 16 0.00 0.00
9:56 am 09:56 Mostly Cloudy 35 1.9 27 -2.6 72 72 E 12 19 29.88 1012 10 16 0.00 0.00
10:56 am 10:56 undefined 38 3.4 27 -2.6 65 65 E 10 17 29.86 1011 10 16 0.00 0.00
11:56 am 11:56 undefined 40 4.7 28 -2.2 61 61 ESE 10 17 29.79 1009 10 16 0.00 0.00
12:56 pm 12:56 Mostly Cloudy 42 5.8 30 -0.9 62 62 ESE 14 22 29.68 1005 10 16 0.00 0.00
1:56 pm 13:56 undefined 47 8.5 34 1.2 60 60 ESE 15 24 29.58 1002 10 16 0.00 0.00
2:56 pm 14:56 Mostly Sunny 49 9.5 37 2.6 62 62 SE 20 31 29.56 1001 10 16 0.00 0.00
3:56 pm 15:56 Sunny 49 9.3 38 3.3 66 66 SE 16 26 29.52 1000 10 16 0.00 0.00
4:56 pm 16:56 Sunny 47 8.6 38 3.2 69 69 SE 12 19 29.51 999 10 16 0.00 0.00
5:56 pm 17:56 Clear 46 8 38 3.6 74 74 SE 9 15 29.50 999 10 16 0.00 0.00
6:56 pm 18:56 Clear 46 7.5 39 3.7 77 77 ESE 7 11 29.49 999 10 16 0.00 0.00
7:56 pm 19:56 Mostly Cloudy 45 7.2 39 3.8 79 79 ESE 5 7 29.51 999 10 16 0.00 0.00
8:56 pm 20:56 Mostly Clear 43 6.3 39 3.8 84 84 ESE 6 9 29.50 999 10 16 0.00 0.00
9:56 pm 21:56 Mostly Clear 42 5.5 39 4 90 90 Calm 29.51 999 10 16 0.00 0.00
10:56 pm 22:56 Clear 39 3.7 37 2.8 94 94 Calm 29.53 1000 10 16 0.00 0.00
11:56 pm 23:56 Clear with Mist and Fog 37 2.5 36 2.4 99 99 NW 10 17 29.60 1002 6 10 0.00 0.00

Powered by AerisWeather